TimeCST,TemperatureF,Dew PointF,Humidity,Sea Level PressureIn,VisibilityMPH,Wind Direction,Wind SpeedMPH,Gust SpeedMPH,PrecipitationIn,Events,Conditions,WindDirDegrees,DateUTC
12:53 AM,39.0,35.1,86,30.14,-9999.0,Calm,Calm,-,N/A,,Clear,0,2013-03-04 06:53:00
1:53 AM,39.0,36.0,89,30.14,-9999.0,Calm,Calm,-,N/A,,Clear,0,2013-03-04 07:53:00
2:53 AM,37.9,36.0,93,30.13,-9999.0,Calm,Calm,-,N/A,,Clear,0,2013-03-04 08:53:00
3:53 AM,37.0,35.1,93,30.13,-9999.0,Calm,Calm,-,N/A,,Clear,0,2013-03-04 09:53:00
4:53 AM,36.0,34.0,93,30.13,-9999.0,Calm,Calm,-,N/A,,Clear,0,2013-03-04 10:53:00
5:53 AM,36.0,34.0,93,30.14,-9999.0,Calm,Calm,-,N/A,,Clear,0,2013-03-04 11:53:00
6:53 AM,37.9,37.0,97,30.14,-9999.0,Calm,Calm,-,N/A,,Clear,0,2013-03-04 12:53:00
7:53 AM,52.0,44.1,74,30.14,10.0,SSE,10.4,-,N/A,,Clear,160,2013-03-04 13:53:00
8:53 AM,55.0,42.1,62,30.16,10.0,SSE,15.0,-,N/A,,Clear,150,2013-03-04 14:53:00
9:53 AM,57.9,42.1,56,30.16,10.0,SSE,11.5,-,N/A,,Clear,160,2013-03-04 15:53:00
10:53 AM,59.0,44.1,58,30.15,-9999.0,SSE,11.5,-,N/A,,Clear,160,2013-03-04 16:53:00
11:53 AM,61.0,46.0,58,30.13,10.0,SSE,13.8,-,N/A,,Clear,150,2013-03-04 17:53:00
12:53 PM,62.1,48.0,60,30.09,10.0,SSE,16.1,-,N/A,,Scattered Clouds,150,2013-03-04 18:53:00
1:53 PM,61.0,48.9,64,30.06,10.0,SSE,17.3,-,N/A,,Mostly Cloudy,150,2013-03-04 19:53:00
2:53 PM,62.1,50.0,65,30.04,10.0,SSE,12.7,-,N/A,,Mostly Cloudy,150,2013-03-04 20:53:00
3:53 PM,62.1,51.1,67,30.04,10.0,SSE,15.0,-,N/A,,Overcast,160,2013-03-04 21:53:00
4:53 PM,61.0,51.1,70,30.03,10.0,South,10.4,-,N/A,,Overcast,170,2013-03-04 22:53:00
5:53 PM,61.0,52.0,72,30.02,10.0,SSE,10.4,-,N/A,,Overcast,160,2013-03-04 23:53:00
6:53 PM,60.1,52.0,75,30.01,10.0,SSE,10.4,-,N/A,,Overcast,160,2013-03-05 00:53:00
7:53 PM,60.1,53.1,78,30.00,10.0,South,11.5,20.7,N/A,,Mostly Cloudy,170,2013-03-05 01:53:00
8:53 PM,61.0,53.1,75,30.00,10.0,South,12.7,-,N/A,,Overcast,170,2013-03-05 02:53:00
9:53 PM,61.0,54.0,78,30.00,10.0,South,9.2,-,N/A,,Overcast,180,2013-03-05 03:53:00
10:53 PM,60.1,54.0,80,29.99,-9999.0,South,10.4,17.3,N/A,,Overcast,170,2013-03-05 04:53:00
11:53 PM,60.1,54.0,80,29.99,-9999.0,South,6.9,-,N/A,,Clear,180,2013-03-05 05:53:00